Other Public Products
Issued by NWS Charleston, SC

Current Version | Previous Version | Graphics & Text | Print | Product List | Glossary On
Versions: 1 2 3 4 5 6 7 8 9 10 11 12 13 14 15 16 17 18 19 20 21 22 23 24 25 26 27 28 29 30 31 32 33 34 35 36 37 38 39 40 41 42 43 44 45 46 47 48 49 50
000
FPUS82 KCHS 211613
OPUCHS

TEST...KCHS/KSAV Gateway Observations...TEST
National Weather Service Charleston SC
1100 AM EST WED FEB 21 2018

NOTE: "fair" indicates few or no clouds below 12,000 feet with no
significant weather and/or obstructions to visibility.

SCZ050-WAZ558-NCZ071-TXZ119-213-PAZ071-DCZ001-FLZ074-172-MI076-
NYZ176-178-MAZ016-IL014-TNZ027-NJZ106-GAZ044-MD014-211700-

...Gateway Observations for Charleston International...

CITY           SKY/WX    TMP DP  RH WIND       PRES   REMARKS
Chas Airport   PTSUNNY   75  68  78 S10       30.48S
Seattle        CLOUDY    28  13  53 SE9       30.32R WCI  19
Charlotte      CLOUDY    72  65  78 S12       30.46S
Dallas DFW     CLOUDY    36  33  89 N18       30.25S WCI  26
Dallas Love    CLOUDY    36  33  89 N10       30.28R WCI  28
Philladelphia  NOT AVBL
Wash National  PTSUNNY   74  63  68 S17G26    30.34F
Baltimore      FAIR      71  62  73 SW13G24   30.31F
Miami          PTSUNNY   80  67  64 E16G28    30.37S
Detroit        LGT RAIN  38  35  89 NW14      30.42R WCI  30
Newark         PTSUNNY   70  59  68 SW17      30.27F
Laguardia      PTSUNNY   68  58  70 SW15      30.27F
J F K          FAIR      57  53  86 S9        30.30F
Boston Logan   PTSUNNY   65  56  72 SW21G28   30.18F
Ft. Lauderdale FAIR      81  70  69 E18       30.37S
Chicago O`Hare CLOUDY    29  18  63 N9        30.53R WCI  20
Chicago Midway CLOUDY    30  21  69 N10       30.54R WCI  21
Houston Bush   LGT RAIN  74  72  93 S12       30.08R
Houston Hobby  CLOUDY    74  73  97 S9G20     30.08R
Nashville      CLOUDY    61  55  81 N14       30.33R
Atlanta        CLOUDY    69  68  96 S7        30.43R FOG

$$

GAZ044-118-TXZ119-213-NCZ071-DCZ001-MDZ014-506-PAZ021-071-NJZ106-
NYZ176-178-MAZ106-OHZ011-021-055-MIZ076-KYZ091-ILZ014-INZ047-
MNZ060-ONZ431-211700-

...Gateway Observations for Savannah International...

CITY           SKY/WX    TMP DP  RH WIND       PRES   REMARKS
Savannah Arpt  PTSUNNY   79  68  69 S14       30.46S
Atlanta        CLOUDY    69  68  96 S7        30.43R FOG
Charlotte      CLOUDY    72  65  78 S12       30.46S
Dallas DFW     CLOUDY    36  33  89 N18       30.25S WCI  26
Houston Bush   LGT RAIN  74  72  93 S12       30.08R
Wash National  PTSUNNY   74  63  68 S17G26    30.34F
Wash Dulles    PTSUNNY   71  62  73 SW15G23   30.34S
Baltimore      FAIR      71  62  73 SW13G24   30.31F
Philadelphia   NOT AVBL
Newark         PTSUNNY   70  59  68 SW17      30.27F
Laguardia      PTSUNNY   68  58  70 SW15      30.27F
J F K          FAIR      57  53  86 S9        30.30F
Boston         PTSUNNY   65  56  72 SW21G28   30.18F
Pittsburg      CLOUDY    70  55  59 W16G24    30.23R
Akron          LGT RAIN  50  47  89 N10       30.31R FOG
Cleveland      LGT RAIN  41  40  96 N13       30.39R FOG
Cincinnati     LGT RAIN  51  51 100 N17       30.35R FOG
Columbus       PTSUNNY   57  57 100 N5        30.32R
Detroit        LGT RAIN  38  35  89 NW14      30.42R WCI  30
Chicago O`Hare CLOUDY    29  18  63 N9        30.53R WCI  20
Minneapolis    FAIR       8   1  73 SW6       30.60R WCI  -2
Indianapolis   LGT RAIN  37  35  92 N8        30.45R WCI  31
Toronto Canada NOT AVBL

$$




USA.gov is the U.S. government's official web portal to all federal, state and local government web resources and services.